CW0238 Weather Reports


Display with metric or nautical units.
time (UTC)temp
F
wind
direction
speed
MPH
gust
MPH
rain 1hr
in
rain 24hr
in
rain mn
in
humidity
%
barometer
mb
20260510151557 70 252 0.0 4.0 0.00 0.00 0.00 61 1014.9
20260510151100 70 267 1.0 4.0 0.00 0.00 0.00 64 1014.9
20260510150555 70 324 1.0 5.0 0.00 0.00 0.00 61 1015.0
20260510150055 70 280 1.0 5.0 0.00 0.00 0.00 61 1014.9
20260510145814 69 270 0.0 2.0 0.00 0.00 0.00 65 1014.9
20260510145319 69 263 0.0 1.0 0.00 0.00 0.00 65 1014.9
20260510144558 69 265 0.0 2.0 0.00 0.00 0.00 64 1014.9
20260510144050 69 268 1.0 5.0 0.00 0.00 0.00 65 1015.0
20260510143549 69 287 1.0 6.0 0.00 0.00 0.00 65 1015.0
20260510143051 68 243 1.0 6.0 0.00 0.00 0.00 66 1015.0
20260510142544 68 265 0.0 4.0 0.00 0.00 0.00 66 1015.0
20260510142301 68 250 1.0 4.0 0.00 0.00 0.00 66 1015.1
20260510141546 68 263 1.0 4.0 0.00 0.00 0.00 67 1015.0
20260510141037 67 229 0.0 3.0 0.00 0.00 0.00 69 1014.9
20260510140753 67 238 0.0 4.0 0.00 0.00 0.00 68 1014.9
20260510140040 67 234 0.0 4.0 0.00 0.00 0.00 68 1014.8
20260510135535 66 317 0.0 3.0 0.00 0.00 0.00 69 1014.7
20260510135252 66 198 0.0 2.0 0.00 0.00 0.00 69 1014.8
20260510134535 66 220 0.0 1.0 0.00 0.00 0.00 69 1014.7
20260510134258 65 302 1.0 4.0 0.00 0.00 0.00 70 1014.6
20260510133538 65 302 1.0 4.0 0.00 0.00 0.00 69 1014.6
20260510133034 65 263 1.0 3.0 0.00 0.00 0.00 72 1014.6
20260510132534 65 262 0.0 3.0 0.00 0.00 0.00 71 1014.6
20260510132034 64 258 0.0 3.0 0.00 0.00 0.00 73 1014.5
20260510131535 64 258 0.0 3.0 0.00 0.00 0.00 74 1014.4
20260510131032 64 258 0.0 2.0 0.00 0.00 0.00 75 1014.3
20260510130533 63 240 0.0 1.0 0.00 0.00 0.00 78 1014.3
20260510130031 62 238 0.0 0.0 0.00 0.00 0.00 80 1014.3
20260510125530 62 238 0.0 0.0 0.00 0.00 0.00 81 1014.2
20260510125029 62 238 0.0 0.0 0.00 0.00 0.00 80 1014.1
20260510124529 62 238 0.0 0.0 0.00 0.00 0.00 78 1014.0
20260510124029 62 238 0.0 0.0 0.00 0.00 0.00 78 1013.8
20260510123524 62 238 0.0 0.0 0.00 0.00 0.00 79 1013.7
20260510123022 61 238 0.0 0.0 0.00 0.00 0.00 81 1013.6
20260510122523 61 238 0.0 0.0 0.00 0.00 0.00 82 1013.5
20260510122015 61 238 0.0 0.0 0.00 0.00 0.00 80 1013.4
20260510121517 61 238 0.0 0.0 0.00 0.00 0.00 80 1013.3
20260510121017 61 238 0.0 0.0 0.00 0.00 0.00 79 1013.2
20260510120751 61 238 0.0 0.0 0.00 0.00 0.00 79 1013.1
20260510120016 61 238 0.0 0.0 0.00 0.00 0.00 79 1013.1
20260510115515 61 238 0.0 0.0 0.00 0.00 0.00 79 1012.9
20260510115009 60 238 0.0 0.0 0.00 0.00 0.00 78 1012.9
20260510114508 60 238 0.0 0.0 0.00 0.00 0.00 77 1012.8
20260510114009 60 238 0.0 0.0 0.00 0.00 0.00 77 1012.8
20260510113727 60 238 0.0 0.0 0.00 0.00 0.00 77 1012.7
20260510113002 60 238 0.0 0.0 0.00 0.00 0.00 76 1012.8
20260510112727 60 238 0.0 0.0 0.00 0.00 0.00 77 1012.8
20260510111956 60 238 0.0 0.0 0.00 0.00 0.00 78 1012.9
20260510111458 60 238 0.0 0.0 0.00 0.00 0.00 77 1012.9
20260510110957 60 238 0.0 0.0 0.00 0.00 0.00 77 1012.8
20260510110456 61 238 0.0 0.0 0.00 0.00 0.00 75 1012.8
20260510105957 60 238 0.0 0.0 0.00 0.00 0.00 76 1012.8
20260510105456 60 238 0.0 0.0 0.00 0.00 0.00 75 1012.7
20260510105000 61 238 0.0 0.0 0.00 0.00 0.00 75 1012.7
20260510104455 61 238 0.0 0.0 0.00 0.00 0.00 74 1012.6
20260510103954 61 238 0.0 0.0 0.00 0.00 0.00 72 1012.5
20260510103456 61 238 0.0 0.0 0.00 0.00 0.00 72 1012.5
20260510102954 61 238 0.0 0.0 0.00 0.00 0.00 72 1012.4
20260510102722 61 238 0.0 0.0 0.00 0.00 0.00 72 1012.3
20260510102221 61 240 0.0 1.0 0.00 0.00 0.00 71 1012.2
20260510101452 61 240 0.0 1.0 0.00 0.00 0.00 72 1012.2
20260510100951 61 242 0.0 0.0 0.00 0.00 0.00 71 1012.1
20260510100449 62 242 0.0 0.0 0.00 0.00 0.00 71 1012.1
20260510100218 62 242 0.0 0.0 0.00 0.00 0.00 71 1012.1
20260510095448 62 242 0.0 0.0 0.00 0.00 0.00 70 1012.1
20260510094946 62 242 0.0 3.0 0.00 0.00 0.00 70 1012.0
20260510094447 62 242 0.0 3.0 0.00 0.00 0.00 69 1012.0
20260510093947 62 288 0.0 1.0 0.00 0.00 0.00 68 1012.0
20260510093447 62 288 0.0 3.0 0.00 0.00 0.00 68 1011.9
20260510092944 62 288 0.0 4.0 0.00 0.00 0.00 69 1012.0
20260510092445 62 247 0.0 3.0 0.00 0.00 0.00 71 1011.9
20260510091939 61 184 0.0 1.0 0.00 0.00 0.00 71 1011.9
20260510091437 62 185 0.0 1.0 0.00 0.00 0.00 70 1011.5
20260510090939 61 175 0.0 0.0 0.00 0.00 0.00 72 1011.5
20260510090701 61 175 0.0 0.0 0.00 0.00 0.00 72 1011.4
20260510085937 61 175 0.0 1.0 0.00 0.00 0.00 72 1011.3
20260510085705 61 175 0.0 1.0 0.00 0.00 0.00 72 1011.3
20260510084933 61 175 0.0 0.0 0.00 0.00 0.00 73 1011.3
20260510084657 61 175 0.0 0.0 0.00 0.00 0.00 73 1011.4
20260510083933 61 175 0.0 0.0 0.00 0.00 0.00 73 1011.3
20260510083431 61 175 0.0 0.0 0.00 0.00 0.00 74 1011.4
20260510082931 61 175 0.0 0.0 0.00 0.00 0.00 74 1011.3
20260510082430 60 175 0.0 0.0 0.00 0.00 0.00 74 1011.3
20260510082158 60 175 0.0 0.0 0.00 0.00 0.00 75 1011.3
20260510081431 60 175 0.0 0.0 0.00 0.00 0.00 75 1011.2
20260510080931 60 175 0.0 0.0 0.00 0.00 0.00 75 1011.3
20260510075933 60 175 0.0 0.0 0.00 0.00 0.00 75 1011.1
20260510075649 60 175 0.0 0.0 0.00 0.00 0.00 75 1011.1
20260510074929 60 175 0.0 0.0 0.00 0.00 0.00 75 1011.1
20260510074431 61 175 0.0 0.0 0.00 0.00 0.00 75 1010.9
20260510073928 61 175 0.0 0.0 0.00 0.00 0.00 74 1010.9
20260510073429 61 175 0.0 0.0 0.00 0.00 0.00 74 1010.9
20260510072923 61 175 0.0 0.0 0.00 0.00 0.00 74 1010.8
20260510072423 60 175 0.0 0.0 0.00 0.00 0.00 75 1010.7
20260510071923 60 175 0.0 0.0 0.00 0.00 0.00 76 1010.8
20260510070917 60 175 0.0 0.0 0.00 0.00 0.00 77 1010.7
20260510070417 60 175 0.0 0.0 0.00 0.00 0.00 76 1010.8
20260510065909 59 175 0.0 0.0 0.00 0.00 0.00 78 1010.7
20260510065410 59 175 0.0 0.0 0.00 0.00 0.00 79 1010.6
20260510064908 59 175 0.0 0.0 0.00 0.00 0.00 81 1010.6
20260510064623 59 175 0.0 0.0 0.00 0.00 0.00 80 1010.6
20260510063905 59 175 0.0 0.0 0.00 0.00 0.00 80 1010.7
20260510063359 59 175 0.0 0.0 0.00 0.00 0.00 80 1010.6
20260510062858 59 175 0.0 0.0 0.00 0.00 0.00 79 1010.7
20260510062400 59 175 0.0 0.0 0.00 0.00 0.00 80 1010.7
20260510061855 58 175 0.0 0.0 0.00 0.00 0.00 80 1010.7
20260510061357 58 175 0.0 0.0 0.00 0.00 0.00 81 1010.8
20260510061117 58 175 0.0 0.0 0.00 0.00 0.00 81 1010.8
20260510060357 58 175 0.0 0.0 0.00 0.00 0.00 82 1010.8
20260510055852 58 175 0.0 0.0 0.00 0.00 0.00 82 1010.8
20260510055349 58 175 0.0 0.0 0.00 0.00 0.00 82 1010.8
20260510054851 59 175 0.0 0.0 0.00 0.00 0.00 82 1010.9
20260510054349 59 175 0.0 0.0 0.00 0.00 0.00 81 1010.9
20260510053849 59 175 0.0 0.0 0.00 0.00 0.00 81 1011.0
20260510053347 59 175 0.0 0.0 0.00 0.00 0.00 80 1011.0
20260510052846 59 175 0.0 0.0 0.00 0.00 0.00 81 1011.1
20260510052350 59 175 0.0 0.0 0.00 0.00 0.00 80 1011.1
20260510052110 59 175 0.0 0.0 0.00 0.00 0.00 80 1011.0
20260510051347 59 175 0.0 0.0 0.00 0.00 0.00 79 1011.2
20260510050843 59 175 0.0 0.0 0.00 0.00 0.00 79 1011.1
20260510050343 59 175 0.0 0.0 0.00 0.00 0.00 79 1011.1
20260510045839 59 175 0.0 0.0 0.00 0.00 0.00 79 1011.1
20260510045338 60 175 0.0 0.0 0.00 0.00 0.00 79 1011.1
20260510044839 60 175 0.0 0.0 0.00 0.00 0.00 80 1011.2
20260510044334 60 175 0.0 0.0 0.00 0.00 0.00 79 1011.1
20260510043836 60 175 0.0 0.0 0.00 0.00 0.00 79 1011.1
20260510043603 60 175 0.0 0.0 0.00 0.00 0.00 79 1011.0
20260510042830 60 175 0.0 0.0 0.00 0.00 0.00 77 1011.0
20260510042329 60 175 0.0 0.0 0.00 0.00 0.00 77 1011.0
20260510041828 60 175 0.0 0.0 0.00 0.00 0.00 77 1011.0
20260510041332 60 175 0.0 0.0 0.00 0.00 0.00 76 1011.0
20260510041049 60 175 0.0 0.0 0.00 0.00 0.00 75 1011.0
20260510040323 60 175 0.0 0.0 0.00 0.00 0.00 75 1011.0
20260510035818 60 175 0.0 0.0 0.00 0.00 0.00 75 1011.0
20260510035317 60 175 0.0 0.0 0.00 0.00 0.00 75 1011.0
20260510034818 60 175 0.0 0.0 0.00 0.00 0.00 75 1011.0
20260510034553 61 175 0.0 0.0 0.00 0.00 0.00 75 1011.0
20260510033817 61 175 0.0 0.0 0.00 0.00 0.00 74 1011.0
20260510033317 61 175 0.0 0.0 0.00 0.00 0.00 74 1011.1
20260510032820 61 175 0.0 0.0 0.00 0.00 0.00 73 1011.1
20260510032312 61 175 0.0 0.0 0.00 0.00 0.00 74 1011.1
20260510031810 61 175 0.0 0.0 0.00 0.00 0.00 73 1011.1
20260510031314 61 175 0.0 0.0 0.00 0.00 0.00 73 1011.1
20260510031032 61 175 0.0 0.0 0.00 0.00 0.00 75 1011.0
20260510030308 62 175 0.0 0.0 0.00 0.00 0.00 73 1011.0
20260510025808 62 175 0.0 0.0 0.00 0.00 0.00 74 1011.0
20260510025307 62 175 0.0 0.0 0.00 0.00 0.00 74 1010.9
20260510024810 62 175 0.0 0.0 0.00 0.00 0.00 72 1010.8
20260510024258 62 175 0.0 0.0 0.00 0.00 0.00 72 1010.9
20260510023757 62 175 0.0 0.0 0.00 0.00 0.00 72 1010.8
20260510023259 62 175 0.0 0.0 0.00 0.00 0.00 72 1010.8
20260510022752 62 175 0.0 0.0 0.00 0.00 0.00 71 1010.7
20260510022252 63 175 0.0 0.0 0.00 0.00 0.00 70 1010.7
20260510021753 63 175 0.0 0.0 0.00 0.00 0.00 71 1010.6
20260510021245 63 175 0.0 0.0 0.00 0.00 0.00 70 1010.5
20260510020743 64 175 0.0 0.0 0.00 0.00 0.00 69 1010.4
20260510020245 64 175 0.0 0.0 0.00 0.00 0.00 68 1010.3
20260510015738 64 175 0.0 0.0 0.00 0.00 0.00 68 1010.2
20260510015240 64 175 0.0 0.0 0.00 0.00 0.00 67 1010.2
20260510014742 65 175 0.0 0.0 0.00 0.00 0.00 66 1010.1
20260510014458 65 175 0.0 0.0 0.00 0.00 0.00 66 1010.0
20260510014004 65 175 0.0 0.0 0.00 0.00 0.00 65 1009.8
20260510013237 66 175 0.0 0.0 0.00 0.00 0.00 65 1009.7
20260510012736 66 175 0.0 0.0 0.00 0.00 0.00 63 1009.7
20260510012240 67 175 0.0 0.0 0.00 0.00 0.00 63 1009.5
20260510011732 67 175 0.0 0.0 0.00 0.00 0.00 62 1009.5
20260510011454 67 175 0.0 0.0 0.00 0.00 0.00 61 1009.5
20260510010734 68 175 0.0 0.0 0.00 0.00 0.00 60 1009.4
20260510010226 68 175 0.0 0.0 0.00 0.00 0.00 59 1009.3
20260510005228 69 175 0.0 0.0 0.00 0.00 0.00 58 1009.1
20260510004720 70 175 0.0 0.0 0.00 0.00 0.00 56 1009.0
20260510004219 70 175 0.0 0.0 0.00 0.00 0.00 55 1008.9
20260510003721 70 175 0.0 0.0 0.00 0.00 0.00 53 1008.9
20260510003217 71 175 0.0 0.0 0.00 0.00 0.00 52 1008.8
20260510002716 71 175 0.0 0.0 0.00 0.00 0.00 52 1008.8
20260510002215 72 175 0.0 0.0 0.00 0.00 0.00 51 1008.7
20260510001714 72 175 0.0 0.0 0.00 0.00 0.00 49 1008.6
20260510001214 73 175 0.0 0.0 0.00 0.00 0.00 49 1008.5
20260510000711 73 175 0.0 1.0 0.00 0.00 0.00 48 1008.3
20260510000211 74 175 0.0 1.0 0.00 0.00 0.00 48 1008.3
20260509235714 74 175 0.0 1.0 0.00 0.00 0.00 47 1008.3
20260509235434 75 175 0.0 1.0 0.00 0.00 0.00 45 1008.3
20260509234936 75 175 0.0 3.0 0.00 0.00 0.00 45 1008.2
20260509233210 76 334 1.0 4.0 0.00 0.00 0.00 42 1008.2
20260509232708 76 175 1.0 3.0 0.00 0.00 0.00 44 1008.2
20260509232209 76 224 1.0 3.0 0.00 0.00 0.00 43 1008.2
20260509231707 76 207 1.0 4.0 0.00 0.00 0.00 43 1008.2
20260509231207 77 271 0.0 4.0 0.00 0.00 0.00 42 1008.1
20260509230705 77 240 1.0 3.0 0.00 0.00 0.00 43 1008.0
20260509230204 77 241 0.0 3.0 0.00 0.00 0.00 42 1008.1
20260509225705 77 263 1.0 6.0 0.00 0.00 0.00 42 1008.1
20260509225203 77 263 1.0 6.0 0.00 0.00 0.00 40 1008.1
20260509224702 77 9 1.0 5.0 0.00 0.00 0.00 39 1008.1
20260509224201 78 186 0.0 3.0 0.00 0.00 0.00 41 1008.0
20260509223701 78 245 0.0 3.0 0.00 0.00 0.00 40 1008.0
20260509223201 77 182 0.0 4.0 0.00 0.00 0.00 40 1007.9
20260509222657 78 304 1.0 7.0 0.00 0.00 0.00 40 1008.0
20260509222157 78 217 1.0 7.0 0.00 0.00 0.00 42 1008.0
20260509221657 78 263 1.0 6.0 0.00 0.00 0.00 42 1008.0
20260509221158 78 290 2.0 6.0 0.00 0.00 0.00 38 1008.0
20260509220656 78 61 2.0 6.0 0.00 0.00 0.00 39 1008.0
20260509220152 78 304 2.0 6.0 0.00 0.00 0.00 39 1008.0
20260509215651 78 286 1.0 6.0 0.00 0.00 0.00 39 1008.0
20260509215154 79 211 1.0 4.0 0.00 0.00 0.00 39 1008.0
20260509214653 78 259 1.0 7.0 0.00 0.00 0.00 40 1008.0
20260509214156 79 239 1.0 7.0 0.00 0.00 0.00 39 1008.0
20260509213651 78 96 1.0 3.0 0.00 0.00 0.00 42 1008.0
20260509213148 79 211 1.0 6.0 0.00 0.00 0.00 41 1008.0
20260509212652 79 225 1.0 6.0 0.00 0.00 0.00 40 1008.0
20260509212406 79 153 1.0 4.0 0.00 0.00 0.00 43 1008.0
20260509211647 79 223 1.0 4.0 0.00 0.00 0.00 45 1008.0
20260509211145 78 76 1.0 5.0 0.00 0.00 0.00 43 1008.0
20260509210643 79 247 1.0 6.0 0.00 0.00 0.00 42 1008.0
20260509210411 79 173 1.0 6.0 0.00 0.00 0.00 43 1008.0
20260509205644 78 175 1.0 3.0 0.00 0.00 0.00 43 1008.0
20260509205145 78 182 1.0 6.0 0.00 0.00 0.00 42 1008.0
20260509204642 79 220 1.0 6.0 0.00 0.00 0.00 41 1008.1
20260509204143 78 248 1.0 5.0 0.00 0.00 0.00 45 1008.2
20260509203638 78 146 1.0 5.0 0.00 0.00 0.00 45 1008.3
20260509203136 78 150 1.0 3.0 0.00 0.00 0.00 46 1008.2
20260509202637 78 189 1.0 4.0 0.00 0.00 0.00 45 1008.2
20260509202132 78 326 2.0 7.0 0.00 0.00 0.00 44 1008.2
20260509201634 78 300 1.0 7.0 0.00 0.00 0.00 45 1008.4
20260509201132 78 263 0.0 4.0 0.00 0.00 0.00 44 1008.4
20260509200625 77 136 1.0 4.0 0.00 0.00 0.00 47 1008.4
20260509200347 78 136 1.0 4.0 0.00 0.00 0.00 46 1008.5
20260509195625 77 248 1.0 6.0 0.00 0.00 0.00 49 1008.5
20260509195122 77 261 1.0 6.0 0.00 0.00 0.00 45 1008.6
20260509194623 77 166 1.0 4.0 0.00 0.00 0.00 48 1008.7
20260509194121 77 273 1.0 4.0 0.00 0.00 0.00 46 1008.7
20260509193846 77 267 1.0 4.0 0.00 0.00 0.00 46 1008.8
20260509193122 78 71 1.0 3.0 0.00 0.00 0.00 49 1008.7
20260509192838 76 257 1.0 3.0 0.00 0.00 0.00 50 1008.7
20260509192119 76 236 1.0 4.0 0.00 0.00 0.00 48 1008.8
20260509191618 77 132 1.0 4.0 0.00 0.00 0.00 50 1008.9
20260509191121 76 246 1.0 4.0 0.00 0.00 0.00 49 1008.9
20260509190618 76 232 1.0 3.0 0.00 0.00 0.00 51 1008.9
20260509190117 76 164 1.0 3.0 0.00 0.00 0.00 49 1008.9
20260509185330 76 251 1.0 7.0 0.00 0.00 0.00 49 1009.0
20260509184610 76 248 1.0 7.0 0.00 0.00 0.00 49 1008.9
20260509184109 75 240 1.0 5.0 0.00 0.00 0.00 51 1009.1
20260509183606 76 159 1.0 4.0 0.00 0.00 0.00 51 1009.1
20260509183106 75 335 1.0 4.0 0.00 0.00 0.00 54 1009.1
20260509182603 74 355 1.0 8.0 0.00 0.00 0.00 53 1009.1
20260509182327 74 270 1.0 8.0 0.00 0.00 0.00 53 1009.1
20260509181604 74 139 1.0 7.0 0.00 0.00 0.00 53 1009.1
20260509181057 74 238 1.0 7.0 0.00 0.00 0.00 57 1009.1
20260509180555 74 267 1.0 6.0 0.00 0.00 0.00 52 1009.1
20260509180057 74 275 1.0 5.0 0.00 0.00 0.00 52 1009.1
20260509175550 74 136 1.0 4.0 0.00 0.00 0.00 53 1009.2
20260509175048 74 268 1.0 4.0 0.00 0.00 0.00 57 1009.2
20260509174826 73 286 1.0 6.0 0.00 0.00 0.00 57 1009.2
20260509174045 73 277 1.0 7.0 0.00 0.00 0.00 53 1009.2
20260509173542 73 263 1.0 7.0 0.00 0.00 0.00 54 1009.2
20260509173046 73 355 1.0 4.0 0.00 0.00 0.00 56 1009.3
20260509172539 72 253 1.0 4.0 0.00 0.00 0.00 59 1009.3
20260509172041 72 295 0.0 4.0 0.00 0.00 0.00 57 1009.3
20260509171757 73 237 1.0 4.0 0.00 0.00 0.00 53 1009.3
20260509171037 72 182 1.0 4.0 0.00 0.00 0.00 56 1009.3
20260509170534 71 224 1.0 5.0 0.00 0.00 0.00 59 1009.3
20260509170036 71 261 1.0 5.0 0.00 0.00 0.00 59 1009.4
20260509165536 71 236 1.0 5.0 0.00 0.00 0.00 58 1009.3
20260509165038 70 355 2.0 7.0 0.00 0.00 0.00 59 1009.4
20260509164531 71 180 1.0 7.0 0.00 0.00 0.00 56 1009.4
20260509164031 71 341 1.0 6.0 0.00 0.00 0.00 61 1009.4
20260509163528 71 276 1.0 4.0 0.00 0.00 0.00 58 1009.4
20260509163024 71 294 1.0 4.0 0.00 0.00 0.00 59 1009.3
20260509162525 70 159 1.0 4.0 0.00 0.00 0.00 60 1009.2
20260509162022 69 199 1.0 3.0 0.00 0.00 0.00 61 1009.1
20260509161518 70 199 1.0 3.0 0.00 0.00 0.00 62 1009.1
20260509161018 70 20 1.0 3.0 0.00 0.00 0.00 63 1009.1
20260509160517 69 236 0.0 3.0 0.00 0.00 0.00 62 1009.1
20260509160011 69 250 1.0 7.0 0.00 0.00 0.00 62 1009.2
20260509155747 69 213 1.0 7.0 0.00 0.00 0.00 62 1009.2
20260509155009 69 194 1.0 6.0 0.00 0.00 0.00 63 1009.1
20260509154508 69 285 0.0 4.0 0.00 0.00 0.00 64 1009.1
20260509154007 68 286 0.0 7.0 0.00 0.00 0.00 65 1009.1
20260509153507 68 334 0.0 7.0 0.00 0.00 0.00 66 1009.1
20260509153007 67 263 0.0 4.0 0.00 0.00 0.00 66 1009.0
20260509152725 67 161 1.0 4.0 0.00 0.00 0.00 66 1009.0
20260509152237 67 200 1.0 5.0 0.00 0.00 0.00 66 1009.0